Regional Weather Roundup
Issued by NWS Newport/Morehead, NC

Home | Current Version | Previous Version | Text Only | Print | Product List | Glossary On
Versions: 1 2 3 4 5 6 7 8 9 10 11 12 13 14 15 16 17 18 19 20 21 22 23 24 25 26 27 28 29 30 31 32 33 34 35 36 37 38 39 40 41 42 43 44 45 46 47 48 49 50
000
ASUS42 KMHX 221014
RWRMHX
WEATHER ROUNDUP FOR EASTERN NORTH CAROLINA
NATIONAL WEATHER SERVICE NEWPORT/MOREHEAD CITY NC
600 AM EDT TUE AUG 22 2017

NOTE: "FAIR" INDICATES FEW OR NO CLOUDS BELOW 12,000 FEET
WITH NO SIGNIFICANT WEATHER AND/OR OBSTRUCTIONS TO VISIBILITY

NCZ015>017-031-032-045>047-102-103-221100-
NORTH COAST

CITY           SKY/WX    TMP DP  RH WIND       PRES   REMARKS
EDENTON        CLEAR     79  76  90 CALM      30.12S
ELIZABETH CITY CLEAR     75  75 100 S3        30.11S
KITTY HAWK     SUNNY     77  74  91 CALM      30.10S
MANTEO         MOCLDY    79  75  89 SW7       30.12S

$$

NCZ045>047-081-094-103-104-221100-
CENTRAL COAST

CITY           SKY/WX    TMP DP  RH WIND       PRES   REMARKS
FRISCO         CLEAR     76  75  97 CALM      30.12S

$$

NCZ095-097-098-100-101-221100-
SOUTHERN COAST

CITY           SKY/WX    TMP DP  RH WIND       PRES   REMARKS
BEAUFORT       CLEAR     74  74 100 CALM      30.12S
CEDAR ISLAND   NOT AVBL
JACKSONVILLE   CLEAR     74  74 100 CALM      30.10F
PINEY ISLAND   SUNNY    N/A N/A N/A S3        30.11F
WILMINGTON     CLEAR     75  74  96 CALM      30.11S


$$

NCZ011>013-027>030-043-044-078>080-089-090>093-098-221100-
COASTAL PLAIN

CITY           SKY/WX    TMP DP  RH WIND       PRES   REMARKS
AHOSKIE          N/A     71  71  99 CALM      30.11S FOG
CLINTON        CLOUDY    73  73 100 CALM      30.11F
ELIZABETHTOWN  NOT AVBL
GOLDSBORO      FOG       74  72  94 W1        30.11F VSB 1/8
GREENVILLE     PTCLDY    73  73 100 CALM      30.12S
HAVELOCK       CLEAR     74  72  93 CALM      30.13S
KENANSVILLE    FOG       72  72 100 CALM      30.12S VSB<1/4
KINSTON        FOG       74  74  99 CALM      30.12S VSB 1/4
NEW BERN       CLEAR     73  73 100 CALM      30.13R
RICHLANDS      PTCLDY    72  71  97 CALM      30.12S
ROCKY MOUNT    MOCLDY    71  71 100 CALM      30.11S FOG
WASHINGTON     CLEAR     73  72  98 CALM      30.11F FOG
WHITEVILLE     PTCLDY    75  74  97 CALM      30.10F

$$

AMZ130-135-150-152-154-156-158-170-250-252-270-ANZ085-086-088-633-658-670-221100-
MARINE OBSERVATIONS

STATION/POSITION TIME  TEMP    WIND        PRES    WAVE   SWELL
                       AIR SEA DIR/SP/G            HT/PER HT/PER
                 (UTC) (F)     (DEG/KT/KT) (MB)    (FT/S) (FT/S)
CHESAPEAKE LIGHT NOT AVBL
64 E VA BEACH    0950   79 79  190/  6/  8 1020.2    2/ 9   2/ 9
DUCK             0942   80 76  210/  8/ 10 1019.2
2 E DUCK         0930      80                N/A     2/ 8   2/11
OREGON INLET     0942   81 80  180/  6/  8 1019.6
13E OREGON INLT  0948      80                N/A     2/ 9   2/ 9
HATTERAS CG      0942   80 82  140/  3/  4 1019.7
DIAMOND BUOY     0950   82 86   CALM  /  2 1019.8    3/ 9   3/ 9
CAPE LOOKOUT     1000   80     270/  2/  2 1019.4
BEAUFORT LAB     0942   78 81   20/  3/  4 1019.1
30 SE NEW RVR IN 0908   79 83   CALM  /  2 1019.6
30 SE NEW RVR IN 0943      83                N/A     3/ 9   2/11
27 SE WRIGHTSVLE 0908   82 84  210/  4/  8 1019.5
5 SE WRIGHTSVLE  0908   81 83  340/  4/  6 1019.1
225 S CAPE HAT   0950   81 83  150/  4/  6 1019.9    4/10   5/10
41 SE CHARLESTON 0950   83 84  230/  6/  8 1018.4    3/10   3/10

$$




USA.gov is the U.S. government's official web portal to all federal, state and local government web resources and services.